Location: Devore Heights
(34.2372°N, 117.4156°W)
Time: 06:47:21
(UTC+00:00)

A-11 Canister half - Visible Passes

Search period start: 19 September 2024 00:00
Search period end: 29 September 2024 00:00
Orbit: 1524 x 1684 km, 47.3° (Epoch: 18 September)

Date Brightness Start Highest point End Pass type
(mag) Time Alt. Az. Time Alt. Az. Time Alt. Az.
19 Sep 9.6 03:50:43 10° WNW 04:00:17 54° SW 04:05:37 29° SSE visible
19 Sep 11.1 06:01:27 10° WSW 06:03:56 11° WSW 06:03:56 11° WSW visible
20 Sep 9.5 03:28:53 10° WNW 03:38:30 57° SW 03:45:29 21° SSE visible
20 Sep 11.0 05:38:37 10° W 05:42:12 12° WSW 05:43:49 12° SW visible
21 Sep 9.5 03:07:04 10° WNW 03:16:44 60° SW 03:25:29 14° SSE visible
21 Sep 11.0 05:16:06 10° W 05:20:29 14° WSW 05:23:49 12° SW visible
22 Sep 9.5 02:45:16 10° WNW 02:54:57 63° SW 03:04:53 10° SE visible
22 Sep 11.0 04:53:46 10° W 04:58:46 15° WSW 05:03:50 10° SSW visible
23 Sep 9.5 02:23:27 10° WNW 02:33:10 66° SW 02:43:09 10° SE visible
23 Sep 11.0 04:31:30 10° W 04:37:03 16° WSW 04:42:40 10° SSW visible
24 Sep 9.5 02:01:39 10° WNW 02:11:24 70° SW 02:21:23 10° SE visible
24 Sep 11.0 04:09:20 10° W 04:15:19 18° WSW 04:21:24 10° SSW visible
25 Sep 11.0 03:47:13 10° W 03:53:36 19° SW 04:00:05 10° SSW visible
26 Sep 11.0 03:25:08 10° W 03:31:52 21° SW 03:38:43 10° SSW visible
27 Sep 11.0 03:03:06 10° W 03:10:08 22° SW 03:17:19 10° S visible
28 Sep 11.0 02:41:05 10° WNW 02:48:25 24° SW 02:55:53 10° S visible
